Year,Month,Day,Hour,Minute,Value (Times are PST for temperature in C)
2018,08,10,00,00,21.00
2018,08,10,00,01,20.80
2018,08,10,00,02,20.70
2018,08,10,00,03,20.60
2018,08,10,00,04,20.50
2018,08,10,00,05,20.40
2018,08,10,00,06,20.30
2018,08,10,00,07,20.20
2018,08,10,00,08,20.20
2018,08,10,00,09,20.10
2018,08,10,00,10,20.00
2018,08,10,00,11,20.00
2018,08,10,00,12,19.90
2018,08,10,00,13,19.90
2018,08,10,00,14,19.80
2018,08,10,00,15,19.80
2018,08,10,00,16,19.80
2018,08,10,00,17,19.70
2018,08,10,00,18,19.70
2018,08,10,00,19,19.80
2018,08,10,00,20,19.80
2018,08,10,00,21,19.80
2018,08,10,00,22,19.80
2018,08,10,00,23,19.80
2018,08,10,00,24,19.80
2018,08,10,00,25,19.80
2018,08,10,00,26,19.90
2018,08,10,00,27,20.00
2018,08,10,00,28,20.10
2018,08,10,00,29,20.20
2018,08,10,00,30,20.40
2018,08,10,00,31,20.50
2018,08,10,00,32,20.50
2018,08,10,00,33,20.60
2018,08,10,00,34,20.60
2018,08,10,00,35,20.60
2018,08,10,00,36,20.70
2018,08,10,00,37,20.70
2018,08,10,00,38,20.80
2018,08,10,00,39,20.80
2018,08,10,00,40,20.70
2018,08,10,00,41,20.70
2018,08,10,00,42,20.60
2018,08,10,00,43,20.50
2018,08,10,00,44,20.40
2018,08,10,00,45,20.30
2018,08,10,00,46,20.20
2018,08,10,00,47,20.20
2018,08,10,00,48,20.20
2018,08,10,00,49,20.20
2018,08,10,00,50,20.20
2018,08,10,00,51,20.20
2018,08,10,00,52,20.20
2018,08,10,00,53,20.20
2018,08,10,00,54,20.30
2018,08,10,00,55,20.40
2018,08,10,00,56,20.40
2018,08,10,00,57,20.50
2018,08,10,00,58,20.50
2018,08,10,00,59,20.50
2018,08,10,01,00,20.60
2018,08,10,01,01,20.60
2018,08,10,01,02,20.60
2018,08,10,01,03,20.60
2018,08,10,01,04,20.60
2018,08,10,01,05,20.60
2018,08,10,01,06,20.60
2018,08,10,01,07,20.60
2018,08,10,01,08,20.60
2018,08,10,01,09,20.50
2018,08,10,01,10,20.50
2018,08,10,01,11,20.50
2018,08,10,01,12,20.50
2018,08,10,01,13,20.50
2018,08,10,01,14,20.50
2018,08,10,01,15,20.60
2018,08,10,01,16,20.70
2018,08,10,01,17,20.80
2018,08,10,01,18,20.90
2018,08,10,01,19,20.90
2018,08,10,01,20,21.00
2018,08,10,01,21,21.10
2018,08,10,01,22,21.10
2018,08,10,01,23,21.10
2018,08,10,01,24,21.20
2018,08,10,01,25,21.20
2018,08,10,01,26,21.20
2018,08,10,01,27,21.20
2018,08,10,01,28,21.20
2018,08,10,01,29,21.20
2018,08,10,01,30,21.30
2018,08,10,01,31,21.30
2018,08,10,01,32,21.30
2018,08,10,01,33,21.20
2018,08,10,01,34,21.20
2018,08,10,01,35,21.20
2018,08,10,01,36,21.20
2018,08,10,01,37,21.20
2018,08,10,01,38,21.20
2018,08,10,01,39,21.20
2018,08,10,01,40,21.20
2018,08,10,01,41,21.30
2018,08,10,01,42,21.30
2018,08,10,01,43,21.30
2018,08,10,01,44,21.40
2018,08,10,01,45,21.40
2018,08,10,01,46,21.40
2018,08,10,01,47,21.50
2018,08,10,01,48,21.50
2018,08,10,01,49,21.60
2018,08,10,01,50,21.60
2018,08,10,01,51,21.60
2018,08,10,01,52,21.60
2018,08,10,01,53,21.70
2018,08,10,01,54,21.70
2018,08,10,01,55,21.70
2018,08,10,01,56,21.80
2018,08,10,01,57,21.80
2018,08,10,01,58,21.80
2018,08,10,01,59,21.80
2018,08,10,02,00,21.80
2018,08,10,02,01,21.80
2018,08,10,02,02,21.80
2018,08,10,02,03,21.80
2018,08,10,02,04,21.80
2018,08,10,02,05,21.80
2018,08,10,02,06,21.80
2018,08,10,02,07,21.80
2018,08,10,02,08,21.80
2018,08,10,02,09,21.80
2018,08,10,02,10,21.80
2018,08,10,02,11,21.80
2018,08,10,02,12,21.80
2018,08,10,02,13,21.80
2018,08,10,02,14,21.80
2018,08,10,02,15,21.80
2018,08,10,02,16,21.80
2018,08,10,02,17,21.80
2018,08,10,02,18,21.80
2018,08,10,02,19,21.80
2018,08,10,02,20,21.80
2018,08,10,02,21,21.80
2018,08,10,02,22,21.80
2018,08,10,02,23,21.80
2018,08,10,02,24,21.80
2018,08,10,02,25,21.80
2018,08,10,02,26,21.80
2018,08,10,02,27,21.80
2018,08,10,02,28,21.80
2018,08,10,02,29,21.80
2018,08,10,02,30,21.80
2018,08,10,02,31,21.80
2018,08,10,02,32,21.80
2018,08,10,02,33,21.80
2018,08,10,02,34,21.80
2018,08,10,02,35,21.80
2018,08,10,02,36,21.80
2018,08,10,02,37,21.80
2018,08,10,02,38,21.80
2018,08,10,02,39,21.80
2018,08,10,02,40,21.80
2018,08,10,02,41,21.80
2018,08,10,02,42,21.70
2018,08,10,02,43,21.70
2018,08,10,02,44,21.70
2018,08,10,02,45,21.70
2018,08,10,02,46,21.70
2018,08,10,02,47,21.70
2018,08,10,02,48,21.70
2018,08,10,02,49,21.70
2018,08,10,02,50,21.60
2018,08,10,02,51,21.60
2018,08,10,02,52,21.60
2018,08,10,02,53,21.60
2018,08,10,02,54,21.60
2018,08,10,02,55,21.60
2018,08,10,02,56,21.60
2018,08,10,02,57,21.60
2018,08,10,02,58,21.60
2018,08,10,02,59,21.60
2018,08,10,03,00,21.50
2018,08,10,03,01,21.50
2018,08,10,03,02,21.40
2018,08,10,03,03,21.40
2018,08,10,03,04,21.40
2018,08,10,03,05,21.40
2018,08,10,03,06,21.40
2018,08,10,03,07,21.10
2018,08,10,03,08,21.10
2018,08,10,03,09,21.00
2018,08,10,03,10,21.00
2018,08,10,03,11,20.90
2018,08,10,03,12,21.00
2018,08,10,03,13,21.00
2018,08,10,03,14,21.00
2018,08,10,03,15,20.90
2018,08,10,03,16,20.90
2018,08,10,03,17,20.90
2018,08,10,03,18,20.80
2018,08,10,03,19,20.80
2018,08,10,03,20,20.80
2018,08,10,03,21,20.80
2018,08,10,03,22,20.80
2018,08,10,03,23,20.70
2018,08,10,03,24,20.70
2018,08,10,03,25,20.70
2018,08,10,03,26,20.70
2018,08,10,03,27,20.70
2018,08,10,03,28,20.70
2018,08,10,03,29,20.70
2018,08,10,03,30,20.70
2018,08,10,03,31,20.70
2018,08,10,03,32,20.70
2018,08,10,03,33,20.70
2018,08,10,03,34,20.70
2018,08,10,03,35,20.70
2018,08,10,03,36,20.70
2018,08,10,03,37,20.70
2018,08,10,03,38,20.70
2018,08,10,03,39,20.70
2018,08,10,03,40,20.70
2018,08,10,03,41,20.70
2018,08,10,03,42,20.70
2018,08,10,03,43,20.60
2018,08,10,03,44,20.60
2018,08,10,03,45,20.60
2018,08,10,03,46,20.60
2018,08,10,03,47,20.70
2018,08,10,03,48,20.70
2018,08,10,03,49,20.70
2018,08,10,03,50,20.70
2018,08,10,03,51,20.70
2018,08,10,03,52,20.70
2018,08,10,03,53,20.70
2018,08,10,03,54,20.80
2018,08,10,03,55,20.80
2018,08,10,03,56,20.80
2018,08,10,03,57,20.80
2018,08,10,03,58,20.80
2018,08,10,03,59,20.70
2018,08,10,04,00,20.70
2018,08,10,04,01,20.70
2018,08,10,04,02,20.70
2018,08,10,04,03,20.60
2018,08,10,04,04,20.60
2018,08,10,04,05,20.60
2018,08,10,04,06,20.50
2018,08,10,04,07,20.50
2018,08,10,04,08,20.50
2018,08,10,04,09,20.40
2018,08,10,04,10,20.40
2018,08,10,04,11,20.40
2018,08,10,04,12,20.40
2018,08,10,04,13,20.40
2018,08,10,04,14,20.50
2018,08,10,04,15,20.50
2018,08,10,04,16,20.50
2018,08,10,04,17,20.60
2018,08,10,04,18,20.60
2018,08,10,04,19,20.60
2018,08,10,04,20,20.60
2018,08,10,04,21,20.70
2018,08,10,04,22,20.70
2018,08,10,04,23,20.70
2018,08,10,04,24,20.70
2018,08,10,04,25,20.70
2018,08,10,04,26,20.70
2018,08,10,04,27,20.70
2018,08,10,04,28,20.70
2018,08,10,04,29,20.70
2018,08,10,04,30,20.70
2018,08,10,04,31,20.70
2018,08,10,04,32,20.70
2018,08,10,04,33,20.70
2018,08,10,04,34,20.60
2018,08,10,04,35,20.60
2018,08,10,04,36,20.60
2018,08,10,04,37,20.60
2018,08,10,04,38,20.60
2018,08,10,04,39,20.50
2018,08,10,04,40,20.50
2018,08,10,04,41,20.50
2018,08,10,04,42,20.50
2018,08,10,04,43,20.40
2018,08,10,04,44,20.40
2018,08,10,04,45,20.40
2018,08,10,04,46,20.40
2018,08,10,04,47,20.40
2018,08,10,04,48,20.40
2018,08,10,04,49,20.30
2018,08,10,04,50,20.30
2018,08,10,04,51,20.30
2018,08,10,04,52,20.30
2018,08,10,04,53,20.30
2018,08,10,04,54,20.30
2018,08,10,04,55,20.30
2018,08,10,04,56,20.30
2018,08,10,04,57,20.30
2018,08,10,04,58,20.30
2018,08,10,04,59,20.30
2018,08,10,05,00,20.30
2018,08,10,05,01,20.30
2018,08,10,05,02,20.30
2018,08,10,05,03,20.30
2018,08,10,05,04,20.30
2018,08,10,05,05,20.30
2018,08,10,05,06,20.30
2018,08,10,05,07,20.30
2018,08,10,05,08,20.30
2018,08,10,05,09,20.30
2018,08,10,05,10,20.30
2018,08,10,05,11,20.40
2018,08,10,05,12,20.40
2018,08,10,05,13,20.40
2018,08,10,05,14,20.40
2018,08,10,05,15,20.40
2018,08,10,05,16,20.40
2018,08,10,05,17,20.40
2018,08,10,05,18,20.40
2018,08,10,05,19,20.40
2018,08,10,05,20,20.40
2018,08,10,05,21,20.40
2018,08,10,05,22,20.40
2018,08,10,05,23,20.50
2018,08,10,05,24,20.50
2018,08,10,05,25,20.50
2018,08,10,05,26,20.50
2018,08,10,05,27,20.50
2018,08,10,05,28,20.50
2018,08,10,05,29,20.60
2018,08,10,05,30,20.60
2018,08,10,05,31,20.60
2018,08,10,05,32,20.60
2018,08,10,05,33,20.60
2018,08,10,05,34,20.60
2018,08,10,05,35,20.60
2018,08,10,05,36,20.60
2018,08,10,05,37,20.60
2018,08,10,05,38,20.60
2018,08,10,05,39,20.60
2018,08,10,05,40,20.60
2018,08,10,05,41,20.60
2018,08,10,05,42,20.60
2018,08,10,05,43,20.60
2018,08,10,05,44,20.60
2018,08,10,05,45,20.60
2018,08,10,05,46,20.60
2018,08,10,05,47,20.60
2018,08,10,05,48,20.60
2018,08,10,05,49,20.60
2018,08,10,05,50,20.60
2018,08,10,05,51,20.50
2018,08,10,05,52,20.50
2018,08,10,05,53,20.50
2018,08,10,05,54,20.50
2018,08,10,05,55,20.50
2018,08,10,05,56,20.50
2018,08,10,05,57,20.50
2018,08,10,05,58,20.50
2018,08,10,05,59,20.50
2018,08,10,06,00,20.40
2018,08,10,06,01,20.40
2018,08,10,06,02,20.40
2018,08,10,06,03,20.40
2018,08,10,06,04,20.40
2018,08,10,06,05,20.40
2018,08,10,06,06,20.40
2018,08,10,06,07,20.40
2018,08,10,06,08,20.40
2018,08,10,06,09,20.40
2018,08,10,06,10,20.40
2018,08,10,06,11,20.40
2018,08,10,06,12,20.40
2018,08,10,06,13,20.40
2018,08,10,06,14,20.40
2018,08,10,06,15,20.30
2018,08,10,06,16,20.40
2018,08,10,06,17,20.40
2018,08,10,06,18,20.40
2018,08,10,06,19,20.40
2018,08,10,06,20,20.40
2018,08,10,06,21,20.40
2018,08,10,06,22,20.40
2018,08,10,06,23,20.40
2018,08,10,06,24,20.30
2018,08,10,06,25,20.30
2018,08,10,06,26,20.30
2018,08,10,06,27,20.30
2018,08,10,06,28,20.30
2018,08,10,06,29,20.30
2018,08,10,06,30,20.30
2018,08,10,06,31,20.30
2018,08,10,06,32,20.30
2018,08,10,06,33,20.20
2018,08,10,06,34,20.20
2018,08,10,06,35,20.20
2018,08,10,06,36,20.20
2018,08,10,06,37,20.20
2018,08,10,06,38,20.20
2018,08,10,06,39,20.20
2018,08,10,06,40,20.10
2018,08,10,06,41,20.10
2018,08,10,06,42,20.10
2018,08,10,06,43,20.10
2018,08,10,06,44,20.10
2018,08,10,06,45,20.10
2018,08,10,06,46,20.10
2018,08,10,06,47,20.20
2018,08,10,06,48,20.20
2018,08,10,06,49,20.20
2018,08,10,06,50,20.20
2018,08,10,06,51,20.30
2018,08,10,06,52,20.30
2018,08,10,06,53,20.30
2018,08,10,06,54,20.30
2018,08,10,06,55,20.40
2018,08,10,06,56,20.40
2018,08,10,06,57,20.40
2018,08,10,06,58,20.50
2018,08,10,06,59,20.50
2018,08,10,07,00,20.60
2018,08,10,07,01,20.60
2018,08,10,07,02,20.70
2018,08,10,07,03,20.70
2018,08,10,07,04,20.70
2018,08,10,07,05,20.80
2018,08,10,07,06,20.80
2018,08,10,07,07,20.90
2018,08,10,07,08,20.90
2018,08,10,07,09,21.00
2018,08,10,07,10,21.10
2018,08,10,07,11,21.10
2018,08,10,07,12,21.20
2018,08,10,07,13,21.20
2018,08,10,07,14,21.30
2018,08,10,07,15,21.30
2018,08,10,07,16,21.30
2018,08,10,07,17,21.40
2018,08,10,07,18,21.40
2018,08,10,07,19,21.50
2018,08,10,07,20,21.50
2018,08,10,07,21,21.60
2018,08,10,07,22,21.60
2018,08,10,07,23,21.70
2018,08,10,07,24,21.70
2018,08,10,07,25,21.80
2018,08,10,07,26,21.80
2018,08,10,07,27,21.80
2018,08,10,07,28,21.80
2018,08,10,07,29,21.80
2018,08,10,07,30,21.90
2018,08,10,07,31,21.90
2018,08,10,07,32,21.90
2018,08,10,07,33,22.00
2018,08,10,07,34,22.10
2018,08,10,07,35,22.10
2018,08,10,07,36,22.10
2018,08,10,07,37,22.20
2018,08,10,07,38,22.20
2018,08,10,07,39,22.20
2018,08,10,07,40,22.30
2018,08,10,07,41,22.30
2018,08,10,07,42,22.40
2018,08,10,07,43,22.50
2018,08,10,07,44,22.50
2018,08,10,07,45,22.60
2018,08,10,07,46,22.60
2018,08,10,07,47,22.70
2018,08,10,07,48,22.70
2018,08,10,07,49,22.70
2018,08,10,07,50,22.80
2018,08,10,07,51,22.80
2018,08,10,07,52,22.80
2018,08,10,07,53,22.80
2018,08,10,07,54,22.80
2018,08,10,07,55,22.90
2018,08,10,07,56,22.90
2018,08,10,07,57,23.00
2018,08,10,07,58,23.10
2018,08,10,07,59,23.20
2018,08,10,08,00,23.30
2018,08,10,08,01,23.30
2018,08,10,08,02,23.40
2018,08,10,08,03,23.40
2018,08,10,08,04,23.50
2018,08,10,08,05,23.50
2018,08,10,08,06,23.60
2018,08,10,08,07,23.60
2018,08,10,08,08,23.60
2018,08,10,08,09,23.60
2018,08,10,08,10,23.60
2018,08,10,08,11,23.60
2018,08,10,08,12,23.60
2018,08,10,08,13,23.70
2018,08,10,08,14,23.70
2018,08,10,08,15,23.70
2018,08,10,08,16,23.70
2018,08,10,08,17,23.70
2018,08,10,08,18,23.70
2018,08,10,08,19,23.70
2018,08,10,08,20,23.80
2018,08,10,08,21,23.90
2018,08,10,08,22,23.90
2018,08,10,08,23,24.00
2018,08,10,08,24,24.00
2018,08,10,08,25,24.10
2018,08,10,08,26,24.10
2018,08,10,08,27,24.10
2018,08,10,08,28,24.20
2018,08,10,08,29,24.20
2018,08,10,08,30,24.20
2018,08,10,08,31,24.20
2018,08,10,08,32,24.20
2018,08,10,08,33,24.20
2018,08,10,08,34,24.20
2018,08,10,08,35,24.30
2018,08,10,08,36,24.30
2018,08,10,08,37,24.40
2018,08,10,08,38,24.50
2018,08,10,08,39,24.60
2018,08,10,08,40,24.70
2018,08,10,08,41,24.70
2018,08,10,08,42,24.80
2018,08,10,08,43,24.90
2018,08,10,08,44,24.90
2018,08,10,08,45,24.90
2018,08,10,08,46,25.00
2018,08,10,08,47,25.10
2018,08,10,08,48,25.10
2018,08,10,08,49,25.20
2018,08,10,08,50,25.20
2018,08,10,08,51,25.20
2018,08,10,08,52,25.10
2018,08,10,08,53,25.10
2018,08,10,08,54,25.10
2018,08,10,08,55,25.10
2018,08,10,08,56,25.00
2018,08,10,08,57,25.00
2018,08,10,08,58,25.00
2018,08,10,08,59,25.00
2018,08,10,09,00,25.00
2018,08,10,09,01,25.00
2018,08,10,09,02,24.90
2018,08,10,09,03,24.90
2018,08,10,09,04,24.80
2018,08,10,09,05,24.70
2018,08,10,09,06,24.60
2018,08,10,09,07,24.60
2018,08,10,09,08,24.60
2018,08,10,09,09,24.50
2018,08,10,09,10,24.60
2018,08,10,09,11,24.60
2018,08,10,09,12,24.70
2018,08,10,09,13,24.70
2018,08,10,09,14,24.80
2018,08,10,09,15,24.80
2018,08,10,09,16,24.80
2018,08,10,09,17,24.90
2018,08,10,09,18,24.90
2018,08,10,09,19,24.90
2018,08,10,09,20,24.90
2018,08,10,09,21,24.90
2018,08,10,09,22,24.80
2018,08,10,09,23,24.80
2018,08,10,09,24,24.70
2018,08,10,09,25,24.70
2018,08,10,09,26,24.70
2018,08,10,09,27,24.70
2018,08,10,09,28,24.70
2018,08,10,09,29,24.80
2018,08,10,09,30,24.80
2018,08,10,09,31,24.80
2018,08,10,09,32,24.80
2018,08,10,09,33,24.90
2018,08,10,09,34,24.90
2018,08,10,09,35,25.00
2018,08,10,09,36,25.00
2018,08,10,09,37,25.10
2018,08,10,09,38,25.20
2018,08,10,09,39,25.30
2018,08,10,09,40,25.40
2018,08,10,09,41,25.50
2018,08,10,09,42,25.60
2018,08,10,09,43,25.70
2018,08,10,09,44,25.80
2018,08,10,09,45,25.90
2018,08,10,09,46,25.90
2018,08,10,09,47,25.90
2018,08,10,09,48,26.00
2018,08,10,09,49,26.10
2018,08,10,09,50,26.10
2018,08,10,09,51,26.10
2018,08,10,09,52,26.20
2018,08,10,09,53,26.20
2018,08,10,09,54,26.20
2018,08,10,09,55,26.10
2018,08,10,09,56,26.00
2018,08,10,09,57,25.90
2018,08,10,09,58,25.90
2018,08,10,09,59,25.80
2018,08,10,10,00,25.70
2018,08,10,10,01,25.60
2018,08,10,10,02,25.50
2018,08,10,10,03,25.50
2018,08,10,10,04,25.40
2018,08,10,10,05,25.30
2018,08,10,10,06,25.30
2018,08,10,10,07,25.20
2018,08,10,10,08,25.20
2018,08,10,10,09,25.10
2018,08,10,10,10,25.10
2018,08,10,10,11,25.00
2018,08,10,10,12,24.90
2018,08,10,10,13,24.90
2018,08,10,10,14,24.80
2018,08,10,10,15,24.80
2018,08,10,10,16,24.80
2018,08,10,10,17,24.80
2018,08,10,10,18,24.80
2018,08,10,10,19,24.80
2018,08,10,10,20,24.80
2018,08,10,10,21,24.80
2018,08,10,10,22,24.90
2018,08,10,10,23,24.80
2018,08,10,10,24,24.80
2018,08,10,10,25,24.80
2018,08,10,10,26,24.90
2018,08,10,10,27,24.90
2018,08,10,10,28,24.90
2018,08,10,10,29,24.90
2018,08,10,10,30,25.00
2018,08,10,10,31,25.00
2018,08,10,10,32,25.10
2018,08,10,10,33,25.10
2018,08,10,10,34,25.20
2018,08,10,10,35,25.20
2018,08,10,10,36,25.30
2018,08,10,10,37,25.30
2018,08,10,10,38,25.20
2018,08,10,10,39,25.10
2018,08,10,10,40,25.10
2018,08,10,10,41,25.00
2018,08,10,10,42,25.00
2018,08,10,10,43,24.90
2018,08,10,10,44,24.90
2018,08,10,10,45,24.90
2018,08,10,10,46,24.90
2018,08,10,10,47,25.00
2018,08,10,10,48,25.10
2018,08,10,10,49,25.10
2018,08,10,10,50,25.20
2018,08,10,10,51,25.30
2018,08,10,10,52,25.30
2018,08,10,10,53,25.40
2018,08,10,10,54,25.40
2018,08,10,10,55,25.50
2018,08,10,10,56,25.50
2018,08,10,10,57,25.50
2018,08,10,10,58,25.40
2018,08,10,10,59,25.40
2018,08,10,11,00,25.50
2018,08,10,11,01,25.50
2018,08,10,11,02,25.50
2018,08,10,11,03,25.60
2018,08,10,11,04,25.60
2018,08,10,11,05,25.60
2018,08,10,11,06,25.60
2018,08,10,11,07,25.60
2018,08,10,11,08,25.50
2018,08,10,11,09,25.50
2018,08,10,11,10,25.50
2018,08,10,11,11,25.40
2018,08,10,11,12,25.40
2018,08,10,11,13,25.50
2018,08,10,11,14,25.60
2018,08,10,11,15,25.60
2018,08,10,11,16,25.50
2018,08,10,11,17,25.50
2018,08,10,11,18,25.40
2018,08,10,11,19,25.50
2018,08,10,11,20,25.50
2018,08,10,11,21,25.60
2018,08,10,11,22,25.60
2018,08,10,11,23,25.60
2018,08,10,11,24,25.60
2018,08,10,11,25,25.60
2018,08,10,11,26,25.60
2018,08,10,11,27,25.60
2018,08,10,11,28,25.50
2018,08,10,11,29,25.50
2018,08,10,11,30,25.50
2018,08,10,11,31,25.40
2018,08,10,11,32,25.40
2018,08,10,11,33,25.40
2018,08,10,11,34,25.40
2018,08,10,11,35,25.40
2018,08,10,11,36,25.50
2018,08,10,11,37,25.50
2018,08,10,11,38,25.50
2018,08,10,11,39,25.60
2018,08,10,11,40,25.50
2018,08,10,11,41,25.50
2018,08,10,11,42,25.40
2018,08,10,11,43,25.40
2018,08,10,11,44,25.40
2018,08,10,11,45,25.40
2018,08,10,11,46,25.40
2018,08,10,11,47,25.40
2018,08,10,11,48,25.30
2018,08,10,11,49,25.30
2018,08,10,11,50,25.20
2018,08,10,11,51,25.20
2018,08,10,11,52,25.20
2018,08,10,11,53,25.30
2018,08,10,11,54,25.30
2018,08,10,11,55,25.40
2018,08,10,11,56,25.50
2018,08,10,11,57,25.50
2018,08,10,11,58,25.60
2018,08,10,11,59,25.70
2018,08,10,12,00,25.70
2018,08,10,12,01,25.80
2018,08,10,12,02,25.80
2018,08,10,12,03,25.90
2018,08,10,12,04,25.90
2018,08,10,12,05,26.00
2018,08,10,12,06,26.10
2018,08,10,12,07,26.00
2018,08,10,12,08,25.90
2018,08,10,12,09,25.90
2018,08,10,12,10,25.90
2018,08,10,12,11,25.90
2018,08,10,12,12,25.90
2018,08,10,12,13,25.90
2018,08,10,12,14,25.90
2018,08,10,12,15,25.90
2018,08,10,12,16,25.90
2018,08,10,12,17,25.90
2018,08,10,12,18,26.10
2018,08,10,12,19,26.10
2018,08,10,12,20,26.20
2018,08,10,12,21,26.20
2018,08,10,12,22,26.30
2018,08,10,12,23,26.20
2018,08,10,12,24,26.20
2018,08,10,12,25,26.20
2018,08,10,12,26,26.20
2018,08,10,12,27,26.20
2018,08,10,12,28,26.30
2018,08,10,12,29,26.40
2018,08,10,12,30,26.50
2018,08,10,12,31,26.60
2018,08,10,12,32,26.70
2018,08,10,12,33,26.70
2018,08,10,12,34,26.70
2018,08,10,12,35,26.70
2018,08,10,12,36,26.80
2018,08,10,12,37,26.90
2018,08,10,12,38,27.00
2018,08,10,12,39,27.10
2018,08,10,12,40,27.10
2018,08,10,12,41,27.20
2018,08,10,12,42,27.30
2018,08,10,12,43,27.20
2018,08,10,12,44,27.20
2018,08,10,12,45,27.20
2018,08,10,12,46,27.10
2018,08,10,12,47,27.10
2018,08,10,12,48,27.10
2018,08,10,12,49,27.10
2018,08,10,12,50,27.20
2018,08,10,12,51,27.20
2018,08,10,12,52,27.30
2018,08,10,12,53,27.30
2018,08,10,12,54,27.30
2018,08,10,12,55,27.20
2018,08,10,12,56,27.10
2018,08,10,12,57,27.10
2018,08,10,12,58,27.10
2018,08,10,12,59,27.10
2018,08,10,13,00,27.10
2018,08,10,13,01,27.10
2018,08,10,13,02,27.00
2018,08,10,13,03,27.10
2018,08,10,13,04,27.10
2018,08,10,13,05,27.10
2018,08,10,13,06,27.10
2018,08,10,13,07,27.20
2018,08,10,13,08,27.30
2018,08,10,13,09,27.30
2018,08,10,13,10,27.30
2018,08,10,13,11,27.40
2018,08,10,13,12,27.40
2018,08,10,13,13,27.40
2018,08,10,13,14,27.50
2018,08,10,13,15,27.50
2018,08,10,13,16,27.60
2018,08,10,13,17,27.70
2018,08,10,13,18,27.80
2018,08,10,13,19,27.90
2018,08,10,13,20,28.00
2018,08,10,13,21,28.10
2018,08,10,13,22,28.10
2018,08,10,13,23,28.20
2018,08,10,13,24,28.20
2018,08,10,13,25,28.20
2018,08,10,13,26,28.30
2018,08,10,13,27,28.50
2018,08,10,13,28,28.60
2018,08,10,13,29,28.80
2018,08,10,13,30,28.90
2018,08,10,13,31,28.90
2018,08,10,13,32,28.90
2018,08,10,13,33,29.00
2018,08,10,13,34,29.00
2018,08,10,13,35,28.90
2018,08,10,13,36,28.70
2018,08,10,13,37,28.60
2018,08,10,13,38,28.50
2018,08,10,13,39,28.30
2018,08,10,13,40,28.00
2018,08,10,13,41,27.80
2018,08,10,13,42,27.60
2018,08,10,13,43,27.30
2018,08,10,13,44,27.10
2018,08,10,13,45,26.90
2018,08,10,13,46,26.80
2018,08,10,13,47,26.90
2018,08,10,13,48,26.90
2018,08,10,13,49,26.90
2018,08,10,13,50,26.80
2018,08,10,13,51,26.80
2018,08,10,13,52,26.80
2018,08,10,13,53,26.70
2018,08,10,13,54,26.60
2018,08,10,13,55,26.60
2018,08,10,13,56,26.60
2018,08,10,13,57,26.60
2018,08,10,13,58,26.60
2018,08,10,13,59,26.60
2018,08,10,14,00,26.60
2018,08,10,14,01,26.50
2018,08,10,14,02,26.50
2018,08,10,14,03,26.40
2018,08,10,14,04,26.30
2018,08,10,14,05,26.30
2018,08,10,14,06,26.20
2018,08,10,14,07,26.10
2018,08,10,14,08,26.10
2018,08,10,14,09,26.10
2018,08,10,14,10,26.20
2018,08,10,14,11,26.30
2018,08,10,14,12,26.40
2018,08,10,14,13,26.40
2018,08,10,14,14,26.40
2018,08,10,14,15,26.40
2018,08,10,14,16,26.30
2018,08,10,14,17,26.30
2018,08,10,14,18,26.20
2018,08,10,14,19,26.20
2018,08,10,14,20,26.20
2018,08,10,14,21,26.20
2018,08,10,14,22,26.20
2018,08,10,14,23,26.10
2018,08,10,14,24,26.00
2018,08,10,14,25,25.90
2018,08,10,14,26,25.90
2018,08,10,14,27,25.90
2018,08,10,14,28,25.90
2018,08,10,14,29,25.80
2018,08,10,14,30,25.80
2018,08,10,14,31,25.70
2018,08,10,14,32,25.60
2018,08,10,14,33,25.50
2018,08,10,14,34,25.30
2018,08,10,14,35,25.30
2018,08,10,14,36,25.20
2018,08,10,14,37,25.10
2018,08,10,14,38,25.00
2018,08,10,14,39,25.00
2018,08,10,14,40,24.90
2018,08,10,14,41,24.90
2018,08,10,14,42,24.80
2018,08,10,14,43,24.80
2018,08,10,14,44,24.90
2018,08,10,14,45,25.00
2018,08,10,14,46,25.00
2018,08,10,14,47,25.10
2018,08,10,14,48,25.10
2018,08,10,14,49,25.10
2018,08,10,14,50,25.10
2018,08,10,14,51,25.20
2018,08,10,14,52,25.30
2018,08,10,14,53,25.40
2018,08,10,14,54,25.50
2018,08,10,14,55,25.60
2018,08,10,14,56,25.70
2018,08,10,14,57,25.80
2018,08,10,14,58,25.90
2018,08,10,14,59,25.90
2018,08,10,15,00,25.90
2018,08,10,15,01,25.90
2018,08,10,15,02,25.90
2018,08,10,15,03,26.00
2018,08,10,15,04,26.10
2018,08,10,15,05,26.30
2018,08,10,15,06,26.50
2018,08,10,15,07,26.70
2018,08,10,15,08,26.80
2018,08,10,15,09,26.80
2018,08,10,15,10,26.90
2018,08,10,15,11,27.10
2018,08,10,15,12,27.20
2018,08,10,15,13,27.40
2018,08,10,15,14,27.50
2018,08,10,15,15,27.50
2018,08,10,15,16,27.50
2018,08,10,15,17,27.50
2018,08,10,15,18,27.50
2018,08,10,15,19,27.70
2018,08,10,15,20,27.70
2018,08,10,15,21,27.60
2018,08,10,15,22,27.60
2018,08,10,15,23,27.60
2018,08,10,15,24,27.70
2018,08,10,15,25,27.70
2018,08,10,15,26,27.80
2018,08,10,15,27,27.90
2018,08,10,15,28,28.00
2018,08,10,15,29,28.00
2018,08,10,15,30,28.00
2018,08,10,15,31,27.90
2018,08,10,15,32,28.00
2018,08,10,15,33,28.00
2018,08,10,15,34,28.10
2018,08,10,15,35,28.20
2018,08,10,15,36,28.30
2018,08,10,15,37,28.30
2018,08,10,15,38,28.30
2018,08,10,15,39,28.30
2018,08,10,15,40,28.30
2018,08,10,15,41,28.30
2018,08,10,15,42,28.30
2018,08,10,15,43,28.30
2018,08,10,15,44,28.30
2018,08,10,15,45,28.40
2018,08,10,15,46,28.40
2018,08,10,15,47,28.40
2018,08,10,15,48,28.50
2018,08,10,15,49,28.60
2018,08,10,15,50,28.60
2018,08,10,15,51,28.60
2018,08,10,15,52,28.50
2018,08,10,15,53,28.40
2018,08,10,15,54,28.40
2018,08,10,15,55,28.40
2018,08,10,15,56,28.30
2018,08,10,15,57,28.30
2018,08,10,15,58,28.20
2018,08,10,15,59,28.10
2018,08,10,16,00,28.10
2018,08,10,16,01,28.10
2018,08,10,16,02,28.10
2018,08,10,16,03,28.10
2018,08,10,16,04,28.00
2018,08,10,16,05,28.00
2018,08,10,16,06,28.10
2018,08,10,16,07,28.10
2018,08,10,16,08,28.00
2018,08,10,16,09,28.00
2018,08,10,16,10,28.00
2018,08,10,16,11,28.10
2018,08,10,16,12,28.10
2018,08,10,16,13,28.10
2018,08,10,16,14,28.10
2018,08,10,16,15,28.10
2018,08,10,16,16,28.20
2018,08,10,16,17,28.20
2018,08,10,16,18,28.20
2018,08,10,16,19,28.30
2018,08,10,16,20,28.30
2018,08,10,16,21,28.30
2018,08,10,16,22,28.20
2018,08,10,16,23,28.20
2018,08,10,16,24,28.20
2018,08,10,16,25,28.20
2018,08,10,16,26,28.20
2018,08,10,16,27,28.20
2018,08,10,16,28,28.30
2018,08,10,16,29,28.30
2018,08,10,16,30,28.40
2018,08,10,16,31,28.40
2018,08,10,16,32,28.40
2018,08,10,16,33,28.40
2018,08,10,16,34,28.40
2018,08,10,16,35,28.40
2018,08,10,16,36,28.30
2018,08,10,16,37,28.30
2018,08,10,16,38,28.30
2018,08,10,16,39,28.20
2018,08,10,16,40,28.20
2018,08,10,16,41,28.10
2018,08,10,16,42,28.10
2018,08,10,16,43,28.20
2018,08,10,16,44,28.30
2018,08,10,16,45,28.30
2018,08,10,16,46,28.40
2018,08,10,16,47,28.40
2018,08,10,16,48,28.50
2018,08,10,16,49,28.60
2018,08,10,16,50,28.60
2018,08,10,16,51,28.60
2018,08,10,16,52,28.60
2018,08,10,16,53,28.60
2018,08,10,16,54,28.60
2018,08,10,16,55,28.60
2018,08,10,16,56,28.60
2018,08,10,16,57,28.70
2018,08,10,16,58,28.70
2018,08,10,16,59,28.70
2018,08,10,17,00,28.70
2018,08,10,17,01,28.70
2018,08,10,17,02,28.70
2018,08,10,17,03,28.70
2018,08,10,17,04,28.70
2018,08,10,17,05,28.60
2018,08,10,17,06,28.60
2018,08,10,17,07,28.60
2018,08,10,17,08,28.60
2018,08,10,17,09,28.70
2018,08,10,17,10,28.70
2018,08,10,17,11,28.70
2018,08,10,17,12,28.70
2018,08,10,17,13,28.70
2018,08,10,17,14,28.70
2018,08,10,17,15,28.70
2018,08,10,17,16,28.70
2018,08,10,17,17,28.80
2018,08,10,17,18,28.80
2018,08,10,17,19,28.80